Location: Cortos
(40.7190°N, 4.5893°W)
Time: 19:47:35
(UTC+00:00)

Cosmos 1340 - Pass Details

Date: 05 July 2020
Orbit: 502 x 504 km, 81.2° (Epoch: 05 August)

Event Time Altitude Azimuth Distance (km) Brightness Sun altitude
Exits shadow 23:34:22 25° 50° (NE) 1,045 4.4 -25.6°
Drops below altitude 10° 23:36:22 10° 28° (NNE) 1,718 6.0 -25.7°
Sets 23:38:36 0° 19° (NNE) 2,607 7.2 -25.8°
